This is the latest recevied weather packets stored in our database for station/object EA6AMI-5. If no packets are shown the sender has not sent any weather packets the latest 10 day(s).
| Time | Temp. | Humidity | Pressure | Rain* | Wind** | Luminosity | Snow |
|---|---|---|---|---|---|---|---|
| 1787453643 | 23.33° C | 75% | 1016.9 hPa | 0 mm | - | 0 W/m² | - |
| 1787453103 | 23.33° C | 74% | 1016.5 hPa | 0 mm | - | 0 W/m² | - |
| 1787452563 | 23.33° C | 73% | 1016.4 hPa | 0 mm | - | 0 W/m² | - |
| 1787452023 | 23.33° C | 73% | 1016.6 hPa | 0 mm | - | 0 W/m² | - |
| 1787451484 | 23.33° C | 71% | 1016.7 hPa | 0 mm | - | 0 W/m² | - |
| 1787450943 | 22.78° C | 72% | 1016.5 hPa | 0 mm | - | 0 W/m² | - |
| 1787450403 | 22.78° C | 76% | 1016.6 hPa | 0 mm | - | 0 W/m² | - |
| 1787450043 | 22.78° C | 77% | 1016.5 hPa | 0 mm | - | 0 W/m² | - |
| 1787449504 | 22.78° C | 79% | 1016.6 hPa | 0 mm | - | 0 W/m² | - |
| 1787448964 | 22.78° C | 79% | 1016.4 hPa | 0 mm | - | 0 W/m² | - |
| 1787448423 | 23.33° C | 81% | 1016.4 hPa | 0 mm | - | 0 W/m² | - |
| 1787447883 | 23.33° C | 80% | 1016.6 hPa | 0 mm | - | 0 W/m² | - |
| 1787447344 | 22.78° C | 81% | 1016.7 hPa | 0 mm | - | 0 W/m² | - |
| 1787446803 | 22.78° C | 80% | 1017 hPa | 0 mm | - | 0 W/m² | - |
| 1787446443 | 23.33° C | 80% | 1016.9 hPa | 0 mm | - | 0 W/m² | - |
| 1787445904 | 23.33° C | 79% | 1016.9 hPa | 0 mm | - | 0 W/m² | - |
| 1787445363 | 23.33° C | 79% | 1017.3 hPa | 0 mm | - | 0 W/m² | - |
| 1787444824 | 23.33° C | 79% | 1017.2 hPa | 0 mm | - | 0 W/m² | - |
| 1787444284 | 23.33° C | 79% | 1017.3 hPa | 0 mm | - | 0 W/m² | - |
| 1787443743 | 23.33° C | 78% | 1017.5 hPa | 0 mm | - | 0 W/m² | - |
| 1787443204 | 23.89° C | 78% | 1017.6 hPa | 0 mm | - | 0 W/m² | - |
| 1787442843 | 23.89° C | 78% | 1017.5 hPa | 0 mm | - | 0 W/m² | - |
| 1787442303 | 23.89° C | 77% | 1017.8 hPa | 0 mm | - | 0 W/m² | - |
| 1787441763 | 23.89° C | 77% | 1017.7 hPa | 0 mm | - | 0 W/m² | - |
| 1787441223 | 23.89° C | 77% | 1017.5 hPa | 0 mm | - | 0 W/m² | - |
* Rain latest hour (hover to see other rain measurements)
** Current wind speed in m/s (hover to see current wind gust speed)